K1PH Weather Reports


time (UTC)temp
C
wind
direction
speed
KPH
gust
KPH
rain 1hr
cm
rain 24hr
cm
rain mn
cm
humidity
%
barometer
mb
20260901092008 18 134 0.0 0.0 0.00 0.00 0.00 92 998.9
20260901091008 18 134 0.0 0.0 0.00 0.00 0.00 92 999.0
20260901090008 18 134 0.0 0.0 0.00 0.00 0.00 91 999.0
20260901085008 18 134 0.0 0.0 0.00 0.00 0.00 91 998.9
20260901084008 18 134 0.0 0.0 0.00 0.00 0.00 91 998.8
20260901083008 18 134 0.0 0.0 0.00 0.00 0.00 91 998.8
20260901082008 18 134 0.0 0.0 0.00 0.00 0.00 91 998.7
20260901081008 18 134 0.0 0.0 0.00 0.00 0.00 91 998.7
20260901080007 18 134 0.0 1.6 0.00 0.00 0.00 91 998.7
20260901075008 18 131 0.0 1.6 0.00 0.00 0.00 91 998.8
20260901074008 18 131 0.0 1.6 0.00 0.00 0.00 91 998.8
20260901073007 18 137 0.0 0.0 0.00 0.00 0.00 91 998.9
20260901071007 18 137 0.0 0.0 0.00 0.00 0.00 91 999.2
20260901070007 18 137 0.0 0.0 0.00 0.00 0.00 91 999.5
20260901065007 18 137 0.0 0.0 0.00 0.00 0.00 91 999.4
20260901064008 18 137 0.0 0.0 0.00 0.00 0.00 91 999.5
20260901063007 18 137 0.0 0.0 0.00 0.00 0.00 91 999.6
20260901062008 18 137 0.0 0.0 0.00 0.00 0.00 90 999.7
20260901060007 18 137 0.0 0.0 0.00 0.00 0.00 90 999.5
20260901055007 18 137 0.0 0.0 0.00 0.00 0.00 90 999.5
20260901054007 18 137 0.0 0.0 0.00 0.00 0.00 90 999.7
20260901053007 18 137 0.0 0.0 0.00 0.00 0.00 91 999.7
20260901052007 18 137 0.0 0.0 0.00 0.00 0.00 90 999.8
20260901051007 18 137 0.0 0.0 0.00 0.00 0.00 90 999.8
20260901050007 18 137 0.0 0.0 0.00 0.00 0.00 90 999.6
20260901045011 18 137 0.0 0.0 0.00 0.00 0.00 90 999.6
20260901044007 18 137 0.0 0.0 0.00 0.00 0.00 90 999.6
20260901042007 18 137 0.0 0.0 0.00 0.00 0.00 90 999.5
20260901035007 18 137 0.0 0.0 0.00 0.00 0.00 89 999.6
20260901034007 18 137 0.0 0.0 0.00 0.00 0.00 90 999.5
20260901033007 18 137 0.0 0.0 0.00 0.00 0.00 90 999.7
20260901032007 18 137 0.0 1.6 0.00 0.00 0.00 89 1000.0
20260901031007 19 122 0.0 1.6 0.00 0.00 0.00 89 999.9
20260901030006 19 286 0.0 0.0 0.00 0.00 0.00 87 1000.0
20260901025007 19 286 0.0 1.6 0.00 0.00 0.00 87 999.9
20260901024007 19 132 0.0 0.0 0.00 0.00 0.00 88 999.9
20260901023006 19 132 0.0 0.0 0.00 0.00 0.00 88 999.9
20260901021006 19 132 0.0 0.0 0.00 0.00 0.00 88 999.9
20260901020006 19 132 0.0 0.0 0.00 0.00 0.00 88 999.8
20260901014006 19 132 0.0 0.0 0.00 0.00 0.00 88 999.9
20260901013007 19 132 0.0 0.0 0.00 0.00 0.00 87 999.9
20260901012006 19 132 0.0 1.6 0.00 0.00 0.00 87 999.9
20260901011006 20 111 0.0 0.0 0.00 0.00 0.00 87 999.9
20260901010006 20 111 0.0 0.0 0.00 0.00 0.00 87 999.9
20260901005006 20 111 0.0 1.6 0.00 0.00 0.00 87 999.9
20260901004007 20 128 0.0 1.6 0.00 0.00 0.00 86 1000.0
20260901001006 20 96 0.0 1.6 0.00 0.00 0.00 84 999.7
20260901000006 20 99 0.0 1.6 0.00 0.00 0.00 84 999.7
20260831235007 21 127 0.0 1.6 0.00 0.00 0.00 82 999.6
20260831234006 21 64 0.0 0.0 0.00 0.00 0.00 81 999.7
20260831233007 21 64 0.0 0.0 0.00 0.00 0.00 80 999.8
20260831232006 21 64 0.0 0.0 0.00 0.00 0.00 79 999.9
20260831231006 21 64 0.0 1.6 0.00 0.00 0.00 79 1000.0
20260831230005 21 91 0.0 1.6 0.00 0.00 0.00 78 1000.1
20260831225006 22 55 1.6 3.2 0.00 0.00 0.00 78 1000.1
20260831224006 22 74 1.6 3.2 0.00 0.00 0.00 76 1000.2
20260831223006 22 69 0.0 0.0 0.00 0.00 0.00 75 1000.2
20260831222006 23 69 0.0 1.6 0.00 0.00 0.00 73 1000.2
20260831221006 23 101 0.0 3.2 0.00 0.00 0.00 71 1000.1
20260831220005 25 145 0.0 1.6 0.00 0.00 0.00 67 1000.1
20260831214006 26 244 1.6 3.2 0.00 0.00 0.00 60 1000.0
20260831213006 25 172 1.6 4.8 0.00 0.00 0.00 61 1000.0
20260831212005 25 100 1.6 4.8 0.00 0.00 0.00 62 999.9
20260831211006 24 106 1.6 3.2 0.00 0.00 0.00 63 999.9
20260831210005 24 112 0.0 3.2 0.00 0.00 0.00 64 1000.0
20260831205005 25 94 1.6 3.2 0.00 0.00 0.00 64 1000.1
20260831203006 25 276 0.0 8.0 0.00 0.00 0.00 57 1000.0
20260831201010 26 109 1.6 4.8 0.00 0.00 0.00 58 1000.1
20260831195011 27 268 3.2 4.8 0.00 0.00 0.00 54 1000.2
20260831194010 26 148 1.6 4.8 0.00 0.00 0.00 53 1000.2
20260831193011 26 131 1.6 3.2 0.00 0.00 0.00 53 1000.2
20260831191010 25 123 3.2 8.0 0.00 0.00 0.00 62 1000.6
20260831185010 25 102 1.6 8.0 0.00 0.00 0.00 60 1000.6
20260831184010 25 85 1.6 3.2 0.00 0.00 0.00 59 1000.8
20260831181010 25 128 1.6 1.6 0.00 0.00 0.00 57 1000.9
20260831180009 25 317 0.0 3.2 0.00 0.00 0.00 54 1000.9
20260831175010 25 243 1.6 4.8 0.00 0.00 0.00 55 1001.0
20260831174010 25 280 1.6 4.8 0.00 0.00 0.00 56 1001.2
20260831172009 25 118 1.6 3.2 0.00 0.00 0.00 56 1001.1
20260831165010 25 247 1.6 3.2 0.00 0.00 0.00 52 1001.6
20260831164009 24 110 3.2 9.7 0.00 0.00 0.00 53 1001.7
20260831163010 24 69 3.2 8.0 0.00 0.00 0.00 58 1001.8
20260831162010 24 98 1.6 4.8 0.00 0.00 0.00 58 1002.0
20260831160009 24 256 3.2 8.0 0.00 0.00 0.00 60 1002.1
20260831155010 24 125 0.0 4.8 0.00 0.00 0.00 59 1002.1
20260831154009 24 283 3.2 4.8 0.00 0.00 0.00 57 1002.1
20260831153010 24 65 4.8 8.0 0.00 0.00 0.00 56 1002.0
20260831152009 23 177 1.6 4.8 0.00 0.00 0.00 55 1002.0
20260831151013 23 116 1.6 3.2 0.00 0.00 0.00 58 1002.1
20260831150009 23 156 3.2 4.8 0.00 0.00 0.00 56 1002.0
20260831145009 23 33 1.6 4.8 0.00 0.00 0.00 58 1002.2
20260831143009 22 271 1.6 4.8 0.00 0.00 0.00 64 1002.4
20260831141009 21 139 1.6 4.8 0.00 0.00 0.00 66 1002.5
20260831140009 21 69 3.2 8.0 0.00 0.00 0.00 70 1002.5
20260831135009 22 175 1.6 3.2 0.00 0.00 0.00 65 1002.4
20260831134009 21 155 0.0 3.2 0.00 0.00 0.00 70 1002.5
20260831133009 21 98 4.8 4.8 0.00 0.00 0.00 75 1002.4
20260831132009 20 54 1.6 4.8 0.00 0.00 0.00 77 1002.4
20260831131009 19 133 0.0 1.6 0.00 0.00 0.00 81 1002.4
20260831130009 18 193 0.0 1.6 0.00 0.00 0.00 84 1002.4
20260831125009 17 132 0.0 3.2 0.00 0.00 0.00 90 1002.3
20260831124009 16 173 3.2 4.8 0.00 0.00 0.00 91 1002.3
20260831123009 16 151 1.6 3.2 0.00 0.00 0.00 93 1002.0
20260831122009 16 88 1.6 4.8 0.00 0.00 0.00 93 1001.9
20260831120008 14 153 1.6 4.8 0.00 0.00 0.00 95 1001.8
20260831115008 13 134 0.0 1.6 0.00 0.00 0.00 95 1001.7
20260831114009 13 147 0.0 0.0 0.00 0.00 0.00 95 1001.7
20260831113008 13 147 0.0 0.0 0.00 0.00 0.00 95 1001.7
20260831112008 12 147 0.0 0.0 0.00 0.00 0.00 95 1001.5
20260831110008 12 147 0.0 0.0 0.00 0.00 0.00 95 1001.4
20260831104009 12 147 0.0 0.0 0.00 0.00 0.00 95 1001.3
20260831103008 12 147 0.0 0.0 0.00 0.00 0.00 95 1001.3
20260831102008 12 147 0.0 0.0 0.00 0.00 0.00 95 1001.2
20260831101008 12 147 0.0 0.0 0.00 0.00 0.00 95 1001.2
20260831100008 12 147 0.0 0.0 0.00 0.00 0.00 95 1001.2
20260831095008 12 147 0.0 0.0 0.00 0.00 0.00 95 1001.2
20260831094008 12 147 0.0 0.0 0.00 0.00 0.00 94 1001.2
20260831093008 12 147 0.0 0.0 0.00 0.00 0.00 94 1001.1